This is the latest recevied weather packets stored in our database for station/object KD7CIH. If no packets are shown the sender has not sent any weather packets the latest 1 day(s).
| Time | Temp. | Humidity | Pressure | Rain* | Wind** | Luminosity | Snow |
|---|---|---|---|---|---|---|---|
| 1778115667 | 11.11° C | 39% | 1012.2 hPa | 0 mm | - | - | - |
| 1778115493 | 11.11° C | 39% | 1012.2 hPa | 0 mm | - | - | - |
| 1778115066 | 11.11° C | 40% | 1012.3 hPa | 0 mm | - | - | - |
| 1778114466 | 10.56° C | 40% | 1012.2 hPa | 0 mm | - | - | - |
| 1778113867 | 10.56° C | 41% | 1012.4 hPa | 0 mm | - | - | - |
| 1778113266 | 10.56° C | 40% | 1012.5 hPa | 0 mm | - | - | - |
| 1778112492 | 10.56° C | 40% | 1012.8 hPa | 0 mm | - | - | - |
| 1778111165 | 10° C | 44% | 1013 hPa | 0 mm | - | - | - |
| 1778110267 | 8.89° C | 43% | 1013.1 hPa | 0 mm | - | - | - |
| 1778109067 | 8.33° C | 43% | 1013.3 hPa | 0 mm | - | - | - |
| 1778108467 | 8.33° C | 46% | 1013.3 hPa | 0 mm | - | - | - |
| 1778108169 | 8.33° C | 45% | 1013.4 hPa | 0 mm | - | - | - |
| 1778105737 | 7.78° C | 46% | 1013.7 hPa | 0 mm | - | - | - |
| 1778105139 | 7.22° C | 46% | 1013.9 hPa | 0 mm | - | - | - |
| 1778104368 | 7.22° C | 48% | 1014.1 hPa | 0 mm | - | - | - |
| 1778103334 | 6.67° C | 45% | 1014.2 hPa | 0 mm | - | - | - |
| 1778102733 | 6.67° C | 47% | 1014.5 hPa | 0 mm | - | - | - |
| 1778102433 | 6.11° C | 46% | 1014.6 hPa | 0 mm | - | - | - |
| 1778102133 | 6.11° C | 47% | 1014.6 hPa | 0 mm | - | - | - |
| 1778100333 | 5.56° C | 48% | 1014.6 hPa | 0 mm | - | - | - |
| 1778098836 | 5.56° C | 44% | 1014.6 hPa | 0 mm | - | - | - |
| 1778097933 | 5.56° C | 49% | 1014.6 hPa | 0 mm | - | - | - |
| 1778097033 | 5° C | 52% | 1014.7 hPa | 0 mm | - | - | - |
| 1778096733 | 5° C | 55% | 1014.6 hPa | 0 mm | - | - | - |
| 1778095363 | 4.44° C | 52% | 1014.6 hPa | 0 mm | - | - | - |
* Rain latest hour (hover to see other rain measurements)
** Current wind speed in m/s (hover to see current wind gust speed)